KOREASAT 116 (45920 NORAD) Tracking and Keplerian Element Data

This shows tracking and keplerian element data for the satellite.

Feedback or suggestion? Click here.




ElementValue
Catalog45920
NameKOREASAT 116
Epoch Orbit24
Epoch Day225.06656543
Epoch Year2020
RAAN86.755
Inclination0.0109
Eccentricity0.0001459
Argument of Perigee68.9585
Mean Anonmoly305.4095
Mean Motion1.00275189
Decay Rate-3.6E-06
L11 45920U 20048A 20225.06656543 -.00000360 00000-0 00000+0 0 9999
L22 45920 0.0109 86.7550 0001459 68.9585 305.4095 1.00275189 248

Live tracking and technical data element details for KOREASAT 116 (NORAD 45920). KOREASAT 116 can be tracked NOW for your location showing map with azimuth and elevation plus other details from your city location.

Track the satellite on the map from your city or location and see movement details for azimuth, elevation, latitude, longitude, range, height, and movement on the map or in text.







IsCatalogInMostPopularTable: catalog: 45920, numindb: 1
Update: records affected: 1



GetName: 45920 KOREASAT 116

Hit Count: updated at: Fri, 14 Aug 2020 04:10:16 GMT